Time,TemperatureF,DewpointF,PressureIn,WindDirection,WindDirectionDegrees,WindSpeedMPH,WindSpeedGustMPH,Humidity,HourlyPrecipIn,Conditions,Clouds,dailyrainin,SoftwareType,DateUTC
2013-05-01 00:00:00,68.0,57.1,29.75,SSE,151,6.0,6.0,68,0.00,,---,0.00,VWS V14.00,2013-05-01 05:00:00,
2013-05-01 00:01:00,68.0,57.1,29.75,SSE,151,3.0,6.0,68,0.00,,---,0.00,VWS V14.00,2013-05-01 05:01:00,
2013-05-01 00:05:00,67.9,57.4,29.75,SSE,150,6.0,9.0,69,0.00,,---,0.00,VWS V14.00,2013-05-01 05:05:00,
2013-05-01 00:06:00,67.9,57.4,29.75,SSE,150,4.0,9.0,69,0.00,,---,0.00,VWS V14.00,2013-05-01 05:06:00,
2013-05-01 00:10:00,67.9,57.4,29.75,SSE,150,4.0,8.0,69,0.00,,---,0.00,VWS V14.00,2013-05-01 05:10:00,
2013-05-01 00:11:00,67.9,57.4,29.75,SSE,150,6.0,8.0,69,0.00,,---,0.00,VWS V14.00,2013-05-01 05:11:00,
2013-05-01 00:15:00,67.9,57.4,29.75,SSE,147,7.0,9.0,69,0.00,,---,0.00,VWS V14.00,2013-05-01 05:15:00,
2013-05-01 00:16:00,67.9,57.4,29.75,SSE,148,7.0,8.0,69,0.00,,---,0.00,VWS V14.00,2013-05-01 05:16:00,
2013-05-01 00:20:00,67.9,57.4,29.75,SE,143,7.0,10.0,69,0.00,,---,0.00,VWS V14.00,2013-05-01 05:20:00,
2013-05-01 00:21:00,67.9,57.4,29.75,SE,143,7.0,10.0,69,0.00,,---,0.00,VWS V14.00,2013-05-01 05:21:00,
2013-05-01 00:25:00,67.9,57.4,29.75,SE,140,5.0,10.0,69,0.00,,---,0.00,VWS V14.00,2013-05-01 05:25:00,
2013-05-01 00:26:00,67.9,57.4,29.75,SE,140,8.0,10.0,69,0.00,,---,0.00,VWS V14.00,2013-05-01 05:26:00,
2013-05-01 00:30:00,67.9,57.4,29.76,SE,140,4.0,10.0,69,0.00,,---,0.00,VWS V14.00,2013-05-01 05:30:00,
2013-05-01 00:31:00,67.9,57.4,29.76,SE,140,9.0,9.0,69,0.00,,---,0.00,VWS V14.00,2013-05-01 05:31:00,
2013-05-01 00:35:00,68.0,57.5,29.76,SE,140,6.0,9.0,69,0.00,,---,0.00,VWS V14.00,2013-05-01 05:35:00,
2013-05-01 00:36:00,67.9,57.4,29.76,SE,140,6.0,9.0,69,0.00,,---,0.00,VWS V14.00,2013-05-01 05:36:00,
2013-05-01 00:40:00,67.9,57.4,29.76,SE,139,4.0,10.0,69,0.00,,---,0.00,VWS V14.00,2013-05-01 05:40:00,
2013-05-01 00:41:00,67.9,57.4,29.76,SE,139,8.0,10.0,69,0.00,,---,0.00,VWS V14.00,2013-05-01 05:41:00,
2013-05-01 00:45:00,67.9,57.4,29.76,SE,139,3.0,6.0,69,0.00,,---,0.00,VWS V14.00,2013-05-01 05:45:00,
2013-05-01 00:46:00,67.9,57.4,29.76,SE,139,4.0,6.0,69,0.00,,---,0.00,VWS V14.00,2013-05-01 05:46:00,
2013-05-01 00:50:00,67.8,57.3,29.76,SE,139,5.0,7.0,69,0.00,,---,0.00,VWS V14.00,2013-05-01 05:50:00,
2013-05-01 00:55:00,67.7,57.6,29.76,SE,135,5.0,9.0,70,0.00,,---,0.00,VWS V14.00,2013-05-01 05:55:00,
2013-05-01 01:00:00,67.7,57.6,29.77,SE,135,4.0,6.0,70,0.00,,---,0.00,VWS V14.00,2013-05-01 06:00:00,
2013-05-01 01:05:00,67.5,57.4,29.77,SE,135,4.0,9.0,70,0.00,,---,0.00,VWS V14.00,2013-05-01 06:05:00,
2013-05-01 01:10:00,67.4,57.3,29.77,SE,135,4.0,6.0,70,0.00,,---,0.00,VWS V14.00,2013-05-01 06:10:00,
2013-05-01 01:15:00,67.2,57.5,29.77,SE,135,3.0,6.0,71,0.00,,---,0.00,VWS V14.00,2013-05-01 06:15:00,
2013-05-01 01:20:00,67.1,57.4,29.77,SE,135,4.0,6.0,71,0.00,,---,0.00,VWS V14.00,2013-05-01 06:20:00,
2013-05-01 01:25:00,67.0,57.7,29.77,SE,135,4.0,10.0,72,0.00,,---,0.00,VWS V14.00,2013-05-01 06:25:00,
2013-05-01 01:30:00,66.9,57.6,29.77,SE,135,5.0,9.0,72,0.00,,---,0.00,VWS V14.00,2013-05-01 06:30:00,
2013-05-01 01:35:00,66.8,57.5,29.77,SE,135,5.0,8.0,72,0.00,,---,0.00,VWS V14.00,2013-05-01 06:35:00,
2013-05-01 01:40:00,66.8,57.5,29.77,SE,135,4.0,7.0,72,0.00,,---,0.00,VWS V14.00,2013-05-01 06:40:00,
2013-05-01 01:45:00,66.7,57.4,29.77,SE,135,5.0,9.0,72,0.00,,---,0.00,VWS V14.00,2013-05-01 06:45:00,
2013-05-01 01:50:00,66.6,57.3,29.77,SE,135,5.0,10.0,72,0.00,,---,0.00,VWS V14.00,2013-05-01 06:50:00,
2013-05-01 01:55:00,66.6,57.7,29.77,SSE,158,5.0,10.0,73,0.00,,---,0.00,VWS V14.00,2013-05-01 06:55:00,
2013-05-01 02:00:00,66.6,57.7,29.77,SSE,158,5.0,9.0,73,0.00,,---,0.00,VWS V14.00,2013-05-01 07:00:00,
2013-05-01 02:05:00,66.5,57.6,29.77,SSE,158,5.0,10.0,73,0.00,,---,0.00,VWS V14.00,2013-05-01 07:05:00,
2013-05-01 02:10:00,66.5,58.0,29.77,SSE,158,5.0,9.0,74,0.00,,---,0.00,VWS V14.00,2013-05-01 07:10:00,
2013-05-01 02:15:00,66.4,57.9,29.77,SSE,158,5.0,7.0,74,0.00,,---,0.00,VWS V14.00,2013-05-01 07:15:00,
2013-05-01 02:20:00,66.3,57.8,29.77,SSE,158,5.0,7.0,74,0.00,,---,0.00,VWS V14.00,2013-05-01 07:20:00,
2013-05-01 02:25:00,66.2,58.0,29.77,SE,135,6.0,10.0,75,0.00,,---,0.00,VWS V14.00,2013-05-01 07:25:00,
2013-05-01 02:30:00,66.2,58.0,29.77,SE,135,5.0,10.0,75,0.00,,---,0.00,VWS V14.00,2013-05-01 07:30:00,
2013-05-01 02:35:00,66.1,58.0,29.77,SE,135,5.0,12.0,75,0.00,,---,0.00,VWS V14.00,2013-05-01 07:35:00,
2013-05-01 02:40:00,66.1,58.0,29.77,SE,135,5.0,9.0,75,0.00,,---,0.00,VWS V14.00,2013-05-01 07:40:00,
2013-05-01 02:45:00,66.0,58.2,29.76,SE,135,5.0,10.0,76,0.00,,---,0.00,VWS V14.00,2013-05-01 07:45:00,
2013-05-01 02:50:00,66.0,58.2,29.76,SE,135,7.0,10.0,76,0.00,,---,0.00,VWS V14.00,2013-05-01 07:50:00,
2013-05-01 02:55:00,65.9,58.5,29.76,SE,135,7.0,10.0,77,0.00,,---,0.00,VWS V14.00,2013-05-01 07:55:00,
2013-05-01 03:00:00,65.9,58.5,29.76,SE,135,6.0,10.0,77,0.00,,---,0.00,VWS V14.00,2013-05-01 08:00:00,
2013-05-01 03:05:00,65.9,58.5,29.76,SE,135,6.0,10.0,77,0.00,,---,0.00,VWS V14.00,2013-05-01 08:05:00,
2013-05-01 03:10:00,65.8,58.4,29.76,SE,135,7.0,11.0,77,0.00,,---,0.00,VWS V14.00,2013-05-01 08:10:00,
2013-05-01 03:15:00,65.8,58.4,29.76,SE,135,7.0,11.0,77,0.00,,---,0.00,VWS V14.00,2013-05-01 08:15:00,
2013-05-01 03:20:00,65.7,58.7,29.76,SE,135,6.0,10.0,78,0.00,,---,0.00,VWS V14.00,2013-05-01 08:20:00,
2013-05-01 03:25:00,65.6,58.6,29.76,SE,135,6.0,11.0,78,0.00,,---,0.00,VWS V14.00,2013-05-01 08:25:00,
2013-05-01 03:30:00,65.5,58.5,29.76,SE,135,6.0,9.0,78,0.00,,---,0.00,VWS V14.00,2013-05-01 08:30:00,
2013-05-01 03:35:00,65.3,58.6,29.76,SE,135,6.0,10.0,79,0.00,,---,0.00,VWS V14.00,2013-05-01 08:35:00,
2013-05-01 03:40:00,65.3,59.0,29.76,SE,135,6.0,10.0,80,0.00,,---,0.00,VWS V14.00,2013-05-01 08:40:00,
2013-05-01 03:45:00,65.3,59.0,29.76,SE,135,5.0,9.0,80,0.00,,---,0.00,VWS V14.00,2013-05-01 08:45:00,
2013-05-01 03:50:00,65.2,58.9,29.76,SE,135,7.0,11.0,80,0.00,,---,0.00,VWS V14.00,2013-05-01 08:50:00,
2013-05-01 03:55:00,65.2,58.9,29.76,SE,135,6.0,11.0,80,0.00,,---,0.00,VWS V14.00,2013-05-01 08:55:00,
2013-05-01 04:00:00,65.1,58.8,29.76,SE,135,5.0,10.0,80,0.00,,---,0.00,VWS V14.00,2013-05-01 09:00:00,
2013-05-01 04:05:00,65.0,58.7,29.76,SE,135,6.0,9.0,80,0.00,,---,0.00,VWS V14.00,2013-05-01 09:05:00,
2013-05-01 04:10:00,64.9,58.6,29.76,SE,135,5.0,10.0,80,0.00,,---,0.00,VWS V14.00,2013-05-01 09:10:00,
2013-05-01 04:15:00,64.8,58.8,29.77,SE,135,5.0,9.0,81,0.00,,---,0.00,VWS V14.00,2013-05-01 09:15:00,
2013-05-01 04:20:00,64.7,58.7,29.76,SE,135,6.0,10.0,81,0.00,,---,0.00,VWS V14.00,2013-05-01 09:20:00,
2013-05-01 04:25:00,64.6,58.7,29.76,SE,135,6.0,10.0,81,0.00,,---,0.00,VWS V14.00,2013-05-01 09:25:00,
2013-05-01 04:30:00,64.5,58.5,29.76,SE,135,5.0,9.0,81,0.00,,---,0.00,VWS V14.00,2013-05-01 09:30:00,
2013-05-01 04:35:00,64.4,58.5,29.76,SE,135,6.0,12.0,81,0.00,,---,0.00,VWS V14.00,2013-05-01 09:35:00,
2013-05-01 04:40:00,64.3,58.7,29.76,SE,135,7.0,11.0,82,0.00,,---,0.00,VWS V14.00,2013-05-01 09:40:00,
2013-05-01 04:45:00,64.2,58.6,29.75,SE,135,8.0,12.0,82,0.00,,---,0.00,VWS V14.00,2013-05-01 09:45:00,
2013-05-01 04:50:00,64.3,59.0,29.75,SE,135,8.0,13.0,83,0.00,,---,0.00,VWS V14.00,2013-05-01 09:50:00,
2013-05-01 04:55:00,64.4,59.1,29.75,SE,135,8.0,13.0,83,0.00,,---,0.00,VWS V14.00,2013-05-01 09:55:00,
2013-05-01 05:00:00,64.6,59.0,29.75,ESE,112,9.0,15.0,82,0.00,,---,0.00,VWS V14.00,2013-05-01 10:00:00,
2013-05-01 05:05:00,64.7,59.1,29.75,SE,135,9.0,14.0,82,0.00,,---,0.00,VWS V14.00,2013-05-01 10:05:00,
2013-05-01 05:10:00,64.8,59.2,29.75,SE,135,8.0,14.0,82,0.00,,---,0.00,VWS V14.00,2013-05-01 10:10:00,
2013-05-01 05:15:00,64.8,59.2,29.75,SE,135,8.0,14.0,82,0.00,,---,0.00,VWS V14.00,2013-05-01 10:15:00,
2013-05-01 05:20:00,64.7,58.7,29.75,SE,135,7.0,13.0,81,0.00,,---,0.00,VWS V14.00,2013-05-01 10:20:00,
2013-05-01 05:25:00,64.7,59.1,29.75,SE,135,7.0,14.0,82,0.00,,---,0.00,VWS V14.00,2013-05-01 10:25:00,
2013-05-01 05:30:00,64.6,59.0,29.76,SE,135,6.0,12.0,82,0.00,,---,0.00,VWS V14.00,2013-05-01 10:30:00,
2013-05-01 05:35:00,64.5,58.9,29.76,SE,135,7.0,12.0,82,0.00,,---,0.00,VWS V14.00,2013-05-01 10:35:00,
2013-05-01 05:40:00,64.4,58.8,29.76,ESE,112,5.0,9.0,82,0.00,,---,0.00,VWS V14.00,2013-05-01 10:40:00,
2013-05-01 05:45:00,64.3,58.7,29.76,ESE,112,4.0,7.0,82,0.00,,---,0.00,VWS V14.00,2013-05-01 10:45:00,
2013-05-01 05:50:00,64.2,58.6,29.76,ESE,112,5.0,7.0,82,0.00,,---,0.00,VWS V14.00,2013-05-01 10:50:00,
2013-05-01 05:55:00,64.0,58.7,29.77,ESE,112,4.0,7.0,83,0.00,,---,0.00,VWS V14.00,2013-05-01 10:55:00,
2013-05-01 06:00:00,63.9,58.6,29.77,ESE,112,4.0,7.0,83,0.00,,---,0.00,VWS V14.00,2013-05-01 11:00:00,
2013-05-01 06:05:00,63.7,58.5,29.77,SE,126,3.0,4.0,83,0.00,,---,0.00,VWS V14.00,2013-05-01 11:05:00,
2013-05-01 06:06:00,63.9,58.6,29.77,ESE,112,4.0,7.0,83,0.00,,---,0.00,VWS V14.00,2013-05-01 11:06:00,
2013-05-01 06:10:00,63.6,58.3,29.77,SE,126,4.0,6.0,83,0.00,,---,0.00,VWS V14.00,2013-05-01 11:10:00,
2013-05-01 06:11:00,63.6,58.3,29.77,SE,126,5.0,6.0,83,0.00,,---,0.00,VWS V14.00,2013-05-01 11:11:00,
2013-05-01 06:15:00,63.4,58.2,29.77,SE,126,4.0,6.0,83,0.00,,---,0.00,VWS V14.00,2013-05-01 11:15:00,
2013-05-01 06:16:00,63.4,58.5,29.77,SE,126,5.0,6.0,84,0.00,,---,0.00,VWS V14.00,2013-05-01 11:16:00,
2013-05-01 06:20:00,63.3,58.4,29.77,SE,126,3.0,6.0,84,0.00,,---,0.00,VWS V14.00,2013-05-01 11:20:00,
2013-05-01 06:21:00,63.3,58.4,29.77,SE,126,3.0,6.0,84,0.00,,---,0.00,VWS V14.00,2013-05-01 11:21:00,
2013-05-01 06:25:00,63.1,58.2,29.77,SE,126,3.0,6.0,84,0.00,,---,0.00,VWS V14.00,2013-05-01 11:25:00,
2013-05-01 06:26:00,63.1,58.2,29.78,SE,126,5.0,6.0,84,0.00,,---,0.00,VWS V14.00,2013-05-01 11:26:00,
2013-05-01 06:30:00,63.0,58.4,29.78,SE,129,4.0,9.0,85,0.00,,---,0.00,VWS V14.00,2013-05-01 11:30:00,
2013-05-01 06:31:00,63.0,58.4,29.78,SE,129,3.0,9.0,85,0.00,,---,0.00,VWS V14.00,2013-05-01 11:31:00,
2013-05-01 06:35:00,62.9,58.3,29.77,SE,129,4.0,7.0,85,0.00,,---,0.00,VWS V14.00,2013-05-01 11:35:00,
2013-05-01 06:36:00,62.9,58.3,29.77,SE,129,6.0,7.0,85,0.00,,---,0.00,VWS V14.00,2013-05-01 11:36:00,
2013-05-01 06:40:00,62.7,58.1,29.77,SE,129,7.0,9.0,85,0.00,,---,0.00,VWS V14.00,2013-05-01 11:40:00,
2013-05-01 06:41:00,62.7,58.1,29.77,SE,129,3.0,6.0,85,0.00,,---,0.00,VWS V14.00,2013-05-01 11:41:00,
2013-05-01 06:45:00,62.7,58.5,29.78,SE,129,5.0,9.0,86,0.00,,---,0.00,VWS V14.00,2013-05-01 11:45:00,
2013-05-01 06:46:00,62.7,58.5,29.78,SE,129,4.0,9.0,86,0.00,,---,0.00,VWS V14.00,2013-05-01 11:46:00,
2013-05-01 06:50:00,62.7,58.5,29.78,SE,127,6.0,7.0,86,0.00,,---,0.00,VWS V14.00,2013-05-01 11:50:00,
2013-05-01 06:51:00,62.7,58.5,29.78,SE,127,6.0,7.0,86,0.00,,---,0.00,VWS V14.00,2013-05-01 11:51:00,
2013-05-01 06:55:00,62.7,58.8,29.78,ESE,121,4.0,10.0,87,0.00,,---,0.00,VWS V14.00,2013-05-01 11:55:00,
2013-05-01 06:56:00,62.7,58.5,29.78,ESE,120,7.0,10.0,86,0.00,,---,0.00,VWS V14.00,2013-05-01 11:56:00,
2013-05-01 07:00:00,62.8,58.9,29.78,ESE,119,7.0,11.0,87,0.00,,---,0.00,VWS V14.00,2013-05-01 12:00:00,
2013-05-01 07:01:00,62.8,58.9,29.78,ESE,121,10.0,11.0,87,0.00,,---,0.00,VWS V14.00,2013-05-01 12:01:00,
2013-05-01 07:05:00,62.9,59.0,29.78,ESE,117,5.0,10.0,87,0.00,,---,0.00,VWS V14.00,2013-05-01 12:05:00,
2013-05-01 07:06:00,62.9,59.0,29.78,ESE,117,5.0,10.0,87,0.00,,---,0.00,VWS V14.00,2013-05-01 12:06:00,
2013-05-01 07:10:00,63.1,59.2,29.78,ESE,119,3.0,10.0,87,0.00,,---,0.00,VWS V14.00,2013-05-01 12:10:00,
2013-05-01 07:11:00,63.0,59.1,29.78,ESE,119,4.0,10.0,87,0.00,,---,0.00,VWS V14.00,2013-05-01 12:11:00,
2013-05-01 07:15:00,63.2,59.3,29.78,ESE,120,4.0,8.0,87,0.00,,---,0.00,VWS V14.00,2013-05-01 12:15:00,
2013-05-01 07:16:00,63.2,59.3,29.78,ESE,120,5.0,8.0,87,0.00,,---,0.00,VWS V14.00,2013-05-01 12:16:00,
2013-05-01 07:20:00,63.5,59.6,29.78,ESE,121,4.0,8.0,87,0.00,,---,0.00,VWS V14.00,2013-05-01 12:20:00,
2013-05-01 07:21:00,63.4,59.5,29.78,ESE,121,6.0,8.0,87,0.00,,---,0.00,VWS V14.00,2013-05-01 12:21:00,
2013-05-01 07:25:00,63.8,59.9,29.78,ESE,123,7.0,10.0,87,0.00,,---,0.00,VWS V14.00,2013-05-01 12:25:00,
2013-05-01 07:26:00,63.7,59.8,29.78,SE,126,8.0,9.0,87,0.00,,---,0.00,VWS V14.00,2013-05-01 12:26:00,
2013-05-01 07:30:00,64.1,60.2,29.78,SE,126,10.0,12.0,87,0.00,,---,0.00,VWS V14.00,2013-05-01 12:30:00,
2013-05-01 07:31:00,64.1,60.2,29.78,SE,128,8.0,10.0,87,0.00,,---,0.00,VWS V14.00,2013-05-01 12:31:00,
2013-05-01 07:36:00,64.4,60.5,29.78,ESE,122,10.0,13.0,87,0.00,,---,0.00,VWS V14.00,2013-05-01 12:36:00,
2013-05-01 07:40:00,64.8,60.5,29.78,ESE,118,10.0,14.0,86,0.00,,---,0.00,VWS V14.00,2013-05-01 12:40:00,
2013-05-01 07:41:00,64.7,60.4,29.78,ESE,115,12.0,14.0,86,0.00,,---,0.00,VWS V14.00,2013-05-01 12:41:00,
2013-05-01 07:45:00,65.1,60.8,29.78,SE,125,10.0,15.0,86,0.00,,---,0.00,VWS V14.00,2013-05-01 12:45:00,
2013-05-01 07:46:00,65.1,60.8,29.78,ESE,121,13.0,15.0,86,0.00,,---,0.00,VWS V14.00,2013-05-01 12:46:00,
2013-05-01 07:50:00,65.5,60.9,29.78,ESE,120,13.0,16.0,85,0.00,,---,0.00,VWS V14.00,2013-05-01 12:50:00,
2013-05-01 07:51:00,65.4,60.8,29.78,ESE,123,11.0,16.0,85,0.00,,---,0.00,VWS V14.00,2013-05-01 12:51:00,
2013-05-01 07:55:00,65.8,61.2,29.78,SE,127,13.0,18.0,85,0.00,,---,0.00,VWS V14.00,2013-05-01 12:55:00,
2013-05-01 07:56:00,65.7,61.1,29.78,ESE,120,7.0,18.0,85,0.00,,---,0.00,VWS V14.00,2013-05-01 12:56:00,
2013-05-01 08:00:00,66.1,61.1,29.79,SE,135,8.0,17.0,84,0.00,,---,0.00,VWS V14.00,2013-05-01 13:00:00,
2013-05-01 08:01:00,66.1,61.1,29.79,SE,128,10.0,17.0,84,0.00,,---,0.00,VWS V14.00,2013-05-01 13:01:00,
2013-05-01 08:05:00,66.5,61.5,29.79,ESE,120,10.0,14.0,84,0.00,,---,0.00,VWS V14.00,2013-05-01 13:05:00,
2013-05-01 08:06:00,66.4,61.4,29.79,SE,124,10.0,14.0,84,0.00,,---,0.00,VWS V14.00,2013-05-01 13:06:00,
2013-05-01 08:10:00,66.8,61.5,29.79,SE,124,9.0,15.0,83,0.00,,---,0.00,VWS V14.00,2013-05-01 13:10:00,
2013-05-01 08:11:00,66.7,61.4,29.79,SSE,149,13.0,15.0,83,0.00,,---,0.00,VWS V14.00,2013-05-01 13:11:00,
2013-05-01 08:15:00,67.1,61.8,29.79,SE,132,7.0,17.0,83,0.00,,---,0.00,VWS V14.00,2013-05-01 13:15:00,
2013-05-01 08:16:00,67.0,61.7,29.79,SE,132,6.0,17.0,83,0.00,,---,0.00,VWS V14.00,2013-05-01 13:16:00,
2013-05-01 08:20:00,67.4,62.1,29.80,SE,135,6.0,13.0,83,0.00,,---,0.00,VWS V14.00,2013-05-01 13:20:00,
2013-05-01 08:21:00,67.3,62.0,29.80,SE,131,10.0,13.0,83,0.00,,---,0.00,VWS V14.00,2013-05-01 13:21:00,
2013-05-01 08:25:00,67.7,62.0,29.80,SE,128,12.0,18.0,82,0.00,,---,0.00,VWS V14.00,2013-05-01 13:25:00,
2013-05-01 08:26:00,67.7,62.0,29.81,ESE,123,14.0,18.0,82,0.00,,---,0.00,VWS V14.00,2013-05-01 13:26:00,
2013-05-01 08:30:00,67.9,61.9,29.81,SE,144,10.0,16.0,81,0.00,,---,0.00,VWS V14.00,2013-05-01 13:30:00,
2013-05-01 08:31:00,67.9,61.9,29.81,SE,140,10.0,16.0,81,0.00,,---,0.00,VWS V14.00,2013-05-01 13:31:00,
2013-05-01 08:35:00,68.1,62.1,29.80,SE,126,12.0,22.0,81,0.00,,---,0.00,VWS V14.00,2013-05-01 13:35:00,
2013-05-01 08:36:00,68.1,62.1,29.81,SE,124,16.0,22.0,81,0.00,,---,0.00,VWS V14.00,2013-05-01 13:36:00,
2013-05-01 08:40:00,68.4,62.3,29.80,SE,140,11.0,20.0,81,0.00,,---,0.00,VWS V14.00,2013-05-01 13:40:00,
2013-05-01 08:41:00,68.3,62.2,29.80,SE,136,6.0,20.0,81,0.00,,---,0.00,VWS V14.00,2013-05-01 13:41:00,
2013-05-01 08:45:00,68.7,62.6,29.81,SE,124,11.0,18.0,81,0.00,,---,0.00,VWS V14.00,2013-05-01 13:45:00,
2013-05-01 08:46:00,68.6,62.5,29.81,SE,135,15.0,18.0,81,0.00,,---,0.00,VWS V14.00,2013-05-01 13:46:00,
2013-05-01 08:50:00,69.0,62.6,29.81,SE,124,16.0,20.0,80,0.00,,---,0.00,VWS V14.00,2013-05-01 13:50:00,
2013-05-01 08:51:00,68.9,62.5,29.81,SE,124,11.0,20.0,80,0.00,,---,0.00,VWS V14.00,2013-05-01 13:51:00,
2013-05-01 08:55:00,69.3,62.9,29.81,SE,125,13.0,22.0,80,0.00,,---,0.00,VWS V14.00,2013-05-01 13:55:00,
2013-05-01 08:56:00,69.2,62.8,29.81,SE,126,13.0,22.0,80,0.00,,---,0.00,VWS V14.00,2013-05-01 13:56:00,
2013-05-01 09:00:00,69.6,63.2,29.82,ESE,116,10.0,18.0,80,0.00,,---,0.00,VWS V14.00,2013-05-01 14:00:00,
2013-05-01 09:01:00,69.5,63.1,29.82,ESE,119,11.0,18.0,80,0.00,,---,0.00,VWS V14.00,2013-05-01 14:01:00,
2013-05-01 09:05:00,70.0,63.2,29.82,SSE,149,17.0,18.0,79,0.00,,---,0.00,VWS V14.00,2013-05-01 14:05:00,
2013-05-01 09:06:00,69.9,63.1,29.82,SE,137,14.0,18.0,79,0.00,,---,0.00,VWS V14.00,2013-05-01 14:06:00,
2013-05-01 09:10:00,70.3,63.1,29.82,SSE,163,11.0,20.0,78,0.00,,---,0.00,VWS V14.00,2013-05-01 14:10:00,
2013-05-01 09:11:00,70.2,63.0,29.82,SE,137,10.0,20.0,78,0.00,,---,0.00,VWS V14.00,2013-05-01 14:11:00,
2013-05-01 09:15:00,70.5,63.3,29.82,SE,127,12.0,22.0,78,0.00,,---,0.00,VWS V14.00,2013-05-01 14:15:00,
2013-05-01 09:16:00,70.5,63.3,29.82,SSE,150,15.0,22.0,78,0.00,,---,0.00,VWS V14.00,2013-05-01 14:16:00,
2013-05-01 09:20:00,70.8,63.2,29.82,SE,135,11.0,22.0,77,0.00,,---,0.00,VWS V14.00,2013-05-01 14:20:00,
2013-05-01 09:21:00,70.7,63.1,29.82,SE,131,13.0,22.0,77,0.00,,---,0.00,VWS V14.00,2013-05-01 14:21:00,
2013-05-01 09:25:00,71.1,63.5,29.82,SSE,149,11.0,19.0,77,0.00,,---,0.00,VWS V14.00,2013-05-01 14:25:00,
2013-05-01 09:26:00,71.0,63.8,29.82,SE,134,6.0,19.0,78,0.00,,---,0.00,VWS V14.00,2013-05-01 14:26:00,
2013-05-01 09:30:00,71.6,63.6,29.82,SE,133,19.0,21.0,76,0.00,,---,0.00,VWS V14.00,2013-05-01 14:30:00,
2013-05-01 09:31:00,71.5,63.9,29.82,SE,135,12.0,19.0,77,0.00,,---,0.00,VWS V14.00,2013-05-01 14:31:00,
2013-05-01 09:35:00,71.8,63.5,29.82,ESE,121,18.0,19.0,75,0.00,,---,0.00,VWS V14.00,2013-05-01 14:35:00,
2013-05-01 09:36:00,71.8,63.8,29.82,SE,143,14.0,19.0,76,0.00,,---,0.00,VWS V14.00,2013-05-01 14:36:00,
2013-05-01 09:40:00,72.1,64.1,29.82,SE,126,16.0,21.0,76,0.00,,---,0.00,VWS V14.00,2013-05-01 14:40:00,
2013-05-01 09:41:00,72.0,63.7,29.82,SE,126,9.0,19.0,75,0.00,,---,0.00,VWS V14.00,2013-05-01 14:41:00,
2013-05-01 09:45:00,72.1,63.8,29.82,SE,127,17.0,22.0,75,0.00,,---,0.00,VWS V14.00,2013-05-01 14:45:00,
2013-05-01 09:46:00,72.1,63.8,29.82,ESE,103,15.0,22.0,75,0.00,,---,0.00,VWS V14.00,2013-05-01 14:46:00,
2013-05-01 09:50:00,72.4,64.0,29.82,SE,137,15.0,18.0,75,0.00,,---,0.00,VWS V14.00,2013-05-01 14:50:00,
2013-05-01 09:51:00,72.4,64.0,29.82,SE,146,15.0,18.0,75,0.00,,---,0.00,VWS V14.00,2013-05-01 14:51:00,
2013-05-01 09:55:00,72.6,63.8,29.82,SSE,147,17.0,20.0,74,0.00,,---,0.00,VWS V14.00,2013-05-01 14:55:00,
2013-05-01 09:56:00,72.6,63.8,29.83,SE,132,14.0,20.0,74,0.00,,---,0.00,VWS V14.00,2013-05-01 14:56:00,
2013-05-01 10:00:00,72.7,63.9,29.83,SE,132,12.0,19.0,74,0.00,,---,0.00,VWS V14.00,2013-05-01 15:00:00,
2013-05-01 10:01:00,72.7,63.9,29.83,ESE,123,10.0,19.0,74,0.00,,---,0.00,VWS V14.00,2013-05-01 15:01:00,
2013-05-01 10:05:00,73.1,64.3,29.83,ESE,123,13.0,17.0,74,0.00,,---,0.00,VWS V14.00,2013-05-01 15:05:00,
2013-05-01 10:06:00,73.0,64.2,29.83,SE,127,14.0,17.0,74,0.00,,---,0.00,VWS V14.00,2013-05-01 15:06:00,
2013-05-01 10:10:00,73.5,64.7,29.84,SSE,153,6.0,15.0,74,0.00,,---,0.00,VWS V14.00,2013-05-01 15:10:00,
2013-05-01 10:11:00,73.4,65.0,29.84,SE,145,9.0,15.0,75,0.00,,---,0.00,VWS V14.00,2013-05-01 15:11:00,
2013-05-01 10:15:00,73.9,64.3,29.85,South,177,15.0,16.0,72,0.00,,---,0.00,VWS V14.00,2013-05-01 15:15:00,
2013-05-01 10:16:00,73.8,64.2,29.84,SSE,165,6.0,16.0,72,0.00,,---,0.00,VWS V14.00,2013-05-01 15:16:00,
2013-05-01 10:20:00,74.3,64.7,29.85,SE,135,14.0,16.0,72,0.00,,---,0.00,VWS V14.00,2013-05-01 15:20:00,
2013-05-01 10:21:00,74.2,64.6,29.85,South,177,11.0,16.0,72,0.00,,---,0.00,VWS V14.00,2013-05-01 15:21:00,
2013-05-01 10:25:00,74.4,64.0,29.86,SE,126,8.0,14.0,70,0.00,,---,0.00,VWS V14.00,2013-05-01 15:25:00,
2013-05-01 10:26:00,74.5,64.5,29.86,SE,140,11.0,14.0,71,0.00,,---,0.00,VWS V14.00,2013-05-01 15:26:00,
2013-05-01 10:30:00,74.3,64.3,29.86,SE,131,7.0,15.0,71,0.00,,---,0.00,VWS V14.00,2013-05-01 15:30:00,
2013-05-01 10:31:00,74.3,64.3,29.86,SSE,157,12.0,15.0,71,0.00,,---,0.00,VWS V14.00,2013-05-01 15:31:00,
2013-05-01 10:35:00,74.1,64.1,29.86,SSE,156,7.0,15.0,71,0.00,,---,0.00,VWS V14.00,2013-05-01 15:35:00,
2013-05-01 10:36:00,74.2,64.2,29.86,SE,135,6.0,15.0,71,0.00,,---,0.00,VWS V14.00,2013-05-01 15:36:00,
2013-05-01 10:40:00,74.2,64.2,29.86,SE,128,12.0,14.0,71,0.00,,---,0.00,VWS V14.00,2013-05-01 15:40:00,
2013-05-01 10:41:00,74.2,64.2,29.86,SSE,147,10.0,12.0,71,0.00,,---,0.00,VWS V14.00,2013-05-01 15:41:00,
2013-05-01 10:45:00,74.2,64.2,29.87,SE,139,5.0,13.0,71,0.00,,---,0.00,VWS V14.00,2013-05-01 15:45:00,
2013-05-01 10:46:00,74.2,64.2,29.86,SE,139,5.0,13.0,71,0.00,,---,0.00,VWS V14.00,2013-05-01 15:46:00,
2013-05-01 10:50:00,74.3,64.3,29.87,SE,142,6.0,13.0,71,0.00,,---,0.00,VWS V14.00,2013-05-01 15:50:00,
2013-05-01 10:51:00,74.3,64.3,29.87,SSE,149,5.0,11.0,71,0.00,,---,0.00,VWS V14.00,2013-05-01 15:51:00,
2013-05-01 10:55:00,74.3,64.3,29.87,SE,134,11.0,12.0,71,0.00,,---,0.00,VWS V14.00,2013-05-01 15:55:00,
2013-05-01 10:56:00,74.3,64.3,29.87,SSE,165,5.0,12.0,71,0.00,,---,0.00,VWS V14.00,2013-05-01 15:56:00,
2013-05-01 11:00:00,74.3,64.3,29.87,SE,144,5.0,13.0,71,0.00,,---,0.00,VWS V14.00,2013-05-01 16:00:00,
2013-05-01 11:01:00,74.3,64.3,29.87,SE,141,5.0,13.0,71,0.00,,---,0.00,VWS V14.00,2013-05-01 16:01:00,
2013-05-01 11:05:00,74.3,64.3,29.88,SSE,150,5.0,9.0,71,0.00,,---,0.00,VWS V14.00,2013-05-01 16:05:00,
2013-05-01 11:06:00,74.3,64.3,29.88,SSE,153,5.0,9.0,71,0.00,,---,0.00,VWS V14.00,2013-05-01 16:06:00,
2013-05-01 11:10:00,74.2,64.2,29.88,SSE,151,4.0,8.0,71,0.00,,---,0.00,VWS V14.00,2013-05-01 16:10:00,
2013-05-01 11:11:00,74.2,64.2,29.88,SSE,147,4.0,8.0,71,0.00,,---,0.00,VWS V14.00,2013-05-01 16:11:00,
2013-05-01 11:15:00,74.2,64.6,29.88,SE,128,4.0,13.0,72,0.00,,---,0.00,VWS V14.00,2013-05-01 16:15:00,
2013-05-01 11:16:00,74.2,64.6,29.88,SE,128,6.0,13.0,72,0.00,,---,0.00,VWS V14.00,2013-05-01 16:16:00,
2013-05-01 11:20:00,74.3,64.7,29.88,SE,135,4.0,7.0,72,0.00,,---,0.00,VWS V14.00,2013-05-01 16:20:00,
2013-05-01 11:21:00,74.2,64.6,29.88,SE,131,4.0,6.0,72,0.00,,---,0.00,VWS V14.00,2013-05-01 16:21:00,
2013-05-01 11:25:00,74.5,64.5,29.88,SE,135,4.0,10.0,71,0.00,,---,0.00,VWS V14.00,2013-05-01 16:25:00,
2013-05-01 11:26:00,74.5,64.9,29.88,SE,135,4.0,10.0,72,0.00,,---,0.00,VWS V14.00,2013-05-01 16:26:00,
2013-05-01 11:30:00,74.4,64.0,29.88,SE,138,4.0,10.0,70,0.00,,---,0.00,VWS V14.00,2013-05-01 16:30:00,
2013-05-01 11:31:00,74.5,64.5,29.88,SE,132,7.0,10.0,71,0.00,,---,0.00,VWS V14.00,2013-05-01 16:31:00,
2013-05-01 11:35:00,74.4,64.4,29.88,SE,133,5.0,10.0,71,0.00,,---,0.00,VWS V14.00,2013-05-01 16:35:00,
2013-05-01 11:36:00,74.4,64.4,29.88,SE,133,5.0,10.0,71,0.00,,---,0.00,VWS V14.00,2013-05-01 16:36:00,
2013-05-01 11:40:00,74.5,64.5,29.88,SE,136,3.0,7.0,71,0.00,,---,0.00,VWS V14.00,2013-05-01 16:40:00,
2013-05-01 11:41:00,74.5,64.5,29.88,SE,136,2.0,7.0,71,0.00,,---,0.00,VWS V14.00,2013-05-01 16:41:00,
2013-05-01 11:45:00,74.7,64.3,29.88,SE,136,5.0,7.0,70,0.00,,---,0.00,VWS V14.00,2013-05-01 16:45:00,
2013-05-01 11:46:00,74.7,64.3,29.88,SE,136,2.0,7.0,70,0.00,,---,0.00,VWS V14.00,2013-05-01 16:46:00,
2013-05-01 11:50:00,75.1,64.7,29.88,SE,142,5.0,7.0,70,0.00,,---,0.00,VWS V14.00,2013-05-01 16:50:00,
2013-05-01 11:51:00,75.0,65.0,29.88,SE,140,7.0,7.0,71,0.00,,---,0.00,VWS V14.00,2013-05-01 16:51:00,
2013-05-01 11:55:00,75.5,64.6,29.88,SE,144,0.0,8.0,69,0.00,,---,0.00,VWS V14.00,2013-05-01 16:55:00,
2013-05-01 11:56:00,75.4,64.5,29.88,SE,144,2.0,8.0,69,0.00,,---,0.00,VWS V14.00,2013-05-01 16:56:00,
2013-05-01 12:00:00,76.3,65.0,29.88,South,171,5.0,11.0,68,0.00,,---,0.00,VWS V14.00,2013-05-01 17:00:00,
2013-05-01 12:01:00,76.2,65.7,29.88,SSW,204,10.0,11.0,70,0.00,,---,0.00,VWS V14.00,2013-05-01 17:01:00,
2013-05-01 12:05:00,76.5,64.3,29.88,South,179,6.0,9.0,66,0.00,,---,0.00,VWS V14.00,2013-05-01 17:05:00,
2013-05-01 12:06:00,76.5,64.3,29.88,South,172,5.0,7.0,66,0.00,,---,0.00,VWS V14.00,2013-05-01 17:06:00,
2013-05-01 12:10:00,76.7,64.5,29.88,SSW,196,1.0,10.0,66,0.00,,---,0.00,VWS V14.00,2013-05-01 17:10:00,
2013-05-01 12:11:00,76.6,64.4,29.88,SSW,196,3.0,10.0,66,0.00,,---,0.00,VWS V14.00,2013-05-01 17:11:00,
2013-05-01 12:15:00,76.9,64.7,29.88,South,174,4.0,10.0,66,0.00,,---,0.00,VWS V14.00,2013-05-01 17:15:00,
2013-05-01 12:16:00,76.8,64.6,29.88,South,174,3.0,10.0,66,0.00,,---,0.00,VWS V14.00,2013-05-01 17:16:00,
2013-05-01 12:20:00,77.5,64.4,29.88,South,175,4.0,9.0,64,0.00,,---,0.00,VWS V14.00,2013-05-01 17:20:00,
2013-05-01 12:21:00,77.3,64.6,29.87,South,175,5.0,9.0,65,0.00,,---,0.00,VWS V14.00,2013-05-01 17:21:00,
2013-05-01 12:25:00,78.2,65.0,29.88,WSW,239,10.0,10.0,64,0.00,,---,0.00,VWS V14.00,2013-05-01 17:25:00,
2013-05-01 12:26:00,78.0,65.3,29.88,SSE,157,4.0,10.0,65,0.00,,---,0.00,VWS V14.00,2013-05-01 17:26:00,
2013-05-01 12:30:00,78.3,64.7,29.88,SW,233,5.0,10.0,63,0.00,,---,0.00,VWS V14.00,2013-05-01 17:30:00,
2013-05-01 12:31:00,78.3,65.1,29.88,SW,233,4.0,10.0,64,0.00,,---,0.00,VWS V14.00,2013-05-01 17:31:00,
2013-05-01 12:35:00,78.1,64.5,29.88,SW,233,3.0,6.0,63,0.00,,---,0.00,VWS V14.00,2013-05-01 17:35:00,
2013-05-01 12:36:00,78.2,64.1,29.88,SW,233,0.0,6.0,62,0.00,,---,0.00,VWS V14.00,2013-05-01 17:36:00,
2013-05-01 12:40:00,78.2,64.1,29.88,South,185,4.0,6.0,62,0.00,,---,0.00,VWS V14.00,2013-05-01 17:40:00,
2013-05-01 12:41:00,78.2,65.0,29.88,South,186,4.0,6.0,64,0.00,,---,0.00,VWS V14.00,2013-05-01 17:41:00,
2013-05-01 12:45:00,78.3,63.8,29.88,South,178,2.0,8.0,61,0.00,,---,0.00,VWS V14.00,2013-05-01 17:45:00,
2013-05-01 12:46:00,78.3,64.2,29.88,South,178,5.0,8.0,62,0.00,,---,0.00,VWS V14.00,2013-05-01 17:46:00,
2013-05-01 12:50:00,78.4,64.3,29.88,SSW,198,5.0,12.0,62,0.00,,---,0.00,VWS V14.00,2013-05-01 17:50:00,
2013-05-01 12:51:00,78.4,64.8,29.88,SSW,200,6.0,12.0,63,0.00,,---,0.00,VWS V14.00,2013-05-01 17:51:00,
2013-05-01 12:55:00,78.4,64.8,29.88,SSW,192,5.0,11.0,63,0.00,,---,0.00,VWS V14.00,2013-05-01 17:55:00,
2013-05-01 12:56:00,78.3,64.7,29.88,SSW,193,10.0,10.0,63,0.00,,---,0.00,VWS V14.00,2013-05-01 17:56:00,
2013-05-01 13:00:00,78.6,64.5,29.88,SSW,194,5.0,9.0,62,0.00,,---,0.00,VWS V14.00,2013-05-01 18:00:00,
2013-05-01 13:01:00,78.6,65.0,29.88,SSW,194,3.0,9.0,63,0.00,,---,0.00,VWS V14.00,2013-05-01 18:01:00,
2013-05-01 13:05:00,78.6,64.5,29.88,SSW,194,0.0,5.0,62,0.00,,---,0.00,VWS V14.00,2013-05-01 18:05:00,
2013-05-01 13:06:00,78.6,64.5,29.88,SSW,194,0.0,5.0,62,0.00,,---,0.00,VWS V14.00,2013-05-01 18:06:00,
2013-05-01 13:10:00,78.7,64.1,29.88,SSW,194,1.0,4.0,61,0.00,,---,0.00,VWS V14.00,2013-05-01 18:10:00,
2013-05-01 13:11:00,78.7,65.1,29.88,SSW,194,4.0,4.0,63,0.00,,---,0.00,VWS V14.00,2013-05-01 18:11:00,
2013-05-01 13:15:00,78.4,63.8,29.88,SSW,194,4.0,4.0,61,0.00,,---,0.00,VWS V14.00,2013-05-01 18:15:00,
2013-05-01 13:16:00,78.5,64.0,29.88,SSW,194,0.0,3.0,61,0.00,,---,0.00,VWS V14.00,2013-05-01 18:16:00,
2013-05-01 13:20:00,78.1,64.0,29.88,SSW,198,3.0,6.0,62,0.00,,---,0.00,VWS V14.00,2013-05-01 18:20:00,
2013-05-01 13:21:00,78.2,64.1,29.88,SSW,198,4.0,6.0,62,0.00,,---,0.00,VWS V14.00,2013-05-01 18:21:00,
2013-05-01 13:25:00,78.0,64.4,29.88,SSW,196,4.0,6.0,63,0.00,,---,0.00,VWS V14.00,2013-05-01 18:25:00,
2013-05-01 13:26:00,78.0,64.4,29.88,SSW,197,3.0,6.0,63,0.00,,---,0.00,VWS V14.00,2013-05-01 18:26:00,
2013-05-01 13:30:00,77.6,64.0,29.88,ESE,121,5.0,10.0,63,0.00,,---,0.00,VWS V14.00,2013-05-01 18:30:00,
2013-05-01 13:31:00,77.7,64.1,29.88,ESE,121,8.0,10.0,63,0.00,,---,0.00,VWS V14.00,2013-05-01 18:31:00,
2013-05-01 13:35:00,77.5,64.8,29.88,ESE,121,4.0,5.0,65,0.00,,---,0.00,VWS V14.00,2013-05-01 18:35:00,
2013-05-01 13:36:00,77.5,64.8,29.88,ESE,121,3.0,5.0,65,0.00,,---,0.00,VWS V14.00,2013-05-01 18:36:00,
2013-05-01 13:40:00,78.0,65.7,29.87,ESE,121,1.0,5.0,66,0.00,,---,0.00,VWS V14.00,2013-05-01 18:40:00,
2013-05-01 13:41:00,77.8,65.1,29.87,ESE,121,0.0,5.0,65,0.00,,---,0.00,VWS V14.00,2013-05-01 18:41:00,
2013-05-01 13:45:00,78.7,65.5,29.87,ESE,122,0.0,7.0,64,0.00,,---,0.00,VWS V14.00,2013-05-01 18:45:00,
2013-05-01 13:46:00,78.5,65.8,29.87,ESE,122,2.0,7.0,65,0.00,,---,0.00,VWS V14.00,2013-05-01 18:46:00,
2013-05-01 13:50:00,79.5,66.3,29.87,SE,131,3.0,6.0,64,0.00,,---,0.00,VWS V14.00,2013-05-01 18:50:00,
2013-05-01 13:51:00,79.3,66.1,29.87,SE,126,4.0,6.0,64,0.00,,---,0.00,VWS V14.00,2013-05-01 18:51:00,
2013-05-01 13:55:00,80.1,65.9,29.87,ESE,107,10.0,14.0,62,0.00,,---,0.00,VWS V14.00,2013-05-01 18:55:00,
2013-05-01 13:56:00,80.0,66.3,29.87,SE,134,2.0,6.0,63,0.00,,---,0.00,VWS V14.00,2013-05-01 18:56:00,
2013-05-01 14:00:00,79.8,65.6,29.86,SE,133,4.0,12.0,62,0.00,,---,0.00,VWS V14.00,2013-05-01 19:00:00,
2013-05-01 14:01:00,79.8,65.2,29.87,SE,134,5.0,12.0,61,0.00,,---,0.00,VWS V14.00,2013-05-01 19:01:00,
2013-05-01 14:05:00,79.9,66.2,29.86,East,96,5.0,11.0,63,0.00,,---,0.00,VWS V14.00,2013-05-01 19:05:00,
2013-05-01 14:06:00,79.8,65.6,29.86,SE,134,6.0,11.0,62,0.00,,---,0.00,VWS V14.00,2013-05-01 19:06:00,
2013-05-01 14:10:00,80.0,65.4,29.86,ESE,105,3.0,9.0,61,0.00,,---,0.00,VWS V14.00,2013-05-01 19:10:00,
2013-05-01 14:11:00,80.0,65.4,29.86,East,100,4.0,9.0,61,0.00,,---,0.00,VWS V14.00,2013-05-01 19:11:00,
2013-05-01 14:15:00,79.8,65.2,29.86,SE,126,5.0,14.0,61,0.00,,---,0.00,VWS V14.00,2013-05-01 19:15:00,
2013-05-01 14:16:00,79.9,65.3,29.86,ESE,123,4.0,10.0,61,0.00,,---,0.00,VWS V14.00,2013-05-01 19:16:00,
2013-05-01 14:20:00,79.4,64.3,29.86,ESE,111,12.0,19.0,60,0.00,,---,0.00,VWS V14.00,2013-05-01 19:20:00,
2013-05-01 14:21:00,79.6,64.5,29.86,ESE,108,12.0,13.0,60,0.00,,---,0.00,VWS V14.00,2013-05-01 19:21:00,
2013-05-01 14:25:00,79.1,65.0,29.85,ESE,108,10.0,15.0,62,0.00,,---,0.00,VWS V14.00,2013-05-01 19:25:00,
2013-05-01 14:26:00,79.1,65.0,29.85,ESE,105,11.0,15.0,62,0.00,,---,0.00,VWS V14.00,2013-05-01 19:26:00,
2013-05-01 14:30:00,79.4,64.3,29.85,ESE,121,11.0,17.0,60,0.00,,---,0.00,VWS V14.00,2013-05-01 19:30:00,
2013-05-01 14:31:00,79.3,65.2,29.85,ESE,119,7.0,14.0,62,0.00,,---,0.00,VWS V14.00,2013-05-01 19:31:00,
2013-05-01 14:35:00,79.9,64.8,29.86,ESE,113,8.0,16.0,60,0.00,,---,0.00,VWS V14.00,2013-05-01 19:35:00,
2013-05-01 14:36:00,79.8,64.7,29.86,ESE,105,12.0,16.0,60,0.00,,---,0.00,VWS V14.00,2013-05-01 19:36:00,
2013-05-01 14:40:00,80.4,65.7,29.85,SE,128,14.0,19.0,61,0.00,,---,0.00,VWS V14.00,2013-05-01 19:40:00,
2013-05-01 14:41:00,80.2,65.5,29.85,SE,128,8.0,10.0,61,0.00,,---,0.00,VWS V14.00,2013-05-01 19:41:00,
2013-05-01 14:45:00,80.7,65.1,29.85,ESE,115,11.0,20.0,59,0.00,,---,0.00,VWS V14.00,2013-05-01 19:45:00,
2013-05-01 14:46:00,80.7,64.6,29.85,East,94,13.0,20.0,58,0.00,,---,0.00,VWS V14.00,2013-05-01 19:46:00,
2013-05-01 14:50:00,81.1,65.4,29.84,SE,137,6.0,19.0,59,0.00,,---,0.00,VWS V14.00,2013-05-01 19:50:00,
2013-05-01 14:51:00,81.0,65.8,29.84,SE,126,16.0,19.0,60,0.00,,---,0.00,VWS V14.00,2013-05-01 19:51:00,
2013-05-01 14:55:00,81.6,64.9,29.84,SE,128,13.0,21.0,57,0.00,,---,0.00,VWS V14.00,2013-05-01 19:55:00,
2013-05-01 14:56:00,81.5,65.3,29.84,ESE,104,14.0,21.0,58,0.00,,---,0.00,VWS V14.00,2013-05-01 19:56:00,
2013-05-01 15:00:00,81.3,65.6,29.84,East,87,10.0,19.0,59,0.00,,---,0.00,VWS V14.00,2013-05-01 20:00:00,
2013-05-01 15:01:00,81.4,64.7,29.84,SE,127,9.0,15.0,57,0.00,,---,0.00,VWS V14.00,2013-05-01 20:01:00,
2013-05-01 15:05:00,81.4,65.7,29.84,ESE,115,18.0,21.0,59,0.00,,---,0.00,VWS V14.00,2013-05-01 20:05:00,
2013-05-01 15:06:00,81.4,65.7,29.84,ESE,107,19.0,19.0,59,0.00,,---,0.00,VWS V14.00,2013-05-01 20:06:00,
2013-05-01 15:10:00,81.3,66.1,29.84,ESE,104,10.0,22.0,60,0.00,,---,0.00,VWS V14.00,2013-05-01 20:10:00,
2013-05-01 15:11:00,81.3,65.6,29.84,ESE,116,22.0,22.0,59,0.00,,---,0.00,VWS V14.00,2013-05-01 20:11:00,
2013-05-01 15:15:00,81.3,66.6,29.84,SE,143,12.0,16.0,61,0.00,,---,0.00,VWS V14.00,2013-05-01 20:15:00,
2013-05-01 15:16:00,81.2,66.9,29.84,ESE,119,11.0,16.0,62,0.00,,---,0.00,VWS V14.00,2013-05-01 20:16:00,
2013-05-01 15:20:00,81.2,65.5,29.85,ESE,121,9.0,14.0,59,0.00,,---,0.00,VWS V14.00,2013-05-01 20:20:00,
2013-05-01 15:21:00,81.4,66.2,29.85,East,99,10.0,14.0,60,0.00,,---,0.00,VWS V14.00,2013-05-01 20:21:00,
2013-05-01 15:25:00,81.2,66.9,29.85,ESE,107,10.0,14.0,62,0.00,,---,0.00,VWS V14.00,2013-05-01 20:25:00,
2013-05-01 15:26:00,81.1,66.9,29.85,East,95,5.0,12.0,62,0.00,,---,0.00,VWS V14.00,2013-05-01 20:26:00,
2013-05-01 15:30:00,81.4,65.7,29.85,East,99,14.0,20.0,59,0.00,,---,0.00,VWS V14.00,2013-05-01 20:30:00,
2013-05-01 15:31:00,81.4,66.2,29.85,SE,133,10.0,16.0,60,0.00,,---,0.00,VWS V14.00,2013-05-01 20:31:00,
2013-05-01 15:35:00,80.9,65.7,29.85,East,99,11.0,16.0,60,0.00,,---,0.00,VWS V14.00,2013-05-01 20:35:00,
2013-05-01 15:36:00,81.2,65.5,29.85,ESE,102,14.0,16.0,59,0.00,,---,0.00,VWS V14.00,2013-05-01 20:36:00,
2013-05-01 15:40:00,80.7,66.0,29.85,East,89,15.0,17.0,61,0.00,,---,0.00,VWS V14.00,2013-05-01 20:40:00,
2013-05-01 15:41:00,80.6,66.4,29.85,ESE,107,13.0,17.0,62,0.00,,---,0.00,VWS V14.00,2013-05-01 20:41:00,
2013-05-01 15:45:00,81.0,66.3,29.85,ESE,105,9.0,22.0,61,0.00,,---,0.00,VWS V14.00,2013-05-01 20:45:00,
2013-05-01 15:46:00,80.9,66.2,29.85,SE,126,12.0,22.0,61,0.00,,---,0.00,VWS V14.00,2013-05-01 20:46:00,
2013-05-01 15:50:00,80.6,65.4,29.84,ESE,116,14.0,19.0,60,0.00,,---,0.00,VWS V14.00,2013-05-01 20:50:00,
2013-05-01 15:51:00,80.7,65.1,29.85,ESE,107,13.0,18.0,59,0.00,,---,0.00,VWS V14.00,2013-05-01 20:51:00,
2013-05-01 15:55:00,80.7,66.5,29.84,ESE,118,13.0,19.0,62,0.00,,---,0.00,VWS V14.00,2013-05-01 20:55:00,
2013-05-01 16:00:00,80.9,65.7,29.84,ESE,111,17.0,22.0,60,0.00,,---,0.00,VWS V14.00,2013-05-01 21:00:00,
2013-05-01 16:05:00,81.1,65.4,29.84,East,91,11.0,18.0,59,0.00,,---,0.00,VWS V14.00,2013-05-01 21:05:00,
2013-05-01 16:10:00,81.3,66.1,29.84,East,99,9.0,19.0,60,0.00,,---,0.00,VWS V14.00,2013-05-01 21:10:00,
2013-05-01 16:15:00,81.5,64.8,29.85,ESE,106,10.0,18.0,57,0.00,,---,0.00,VWS V14.00,2013-05-01 21:15:00,
2013-05-01 16:20:00,81.6,65.4,29.85,ESE,107,12.0,18.0,58,0.00,,---,0.00,VWS V14.00,2013-05-01 21:20:00,
2013-05-01 16:25:00,81.6,64.9,29.85,East,97,11.0,16.0,57,0.00,,---,0.00,VWS V14.00,2013-05-01 21:25:00,
2013-05-01 16:30:00,81.2,65.5,29.85,ESE,123,6.0,18.0,59,0.00,,---,0.00,VWS V14.00,2013-05-01 21:30:00,
2013-05-01 16:35:00,81.1,64.9,29.85,SE,125,14.0,18.0,58,0.00,,---,0.00,VWS V14.00,2013-05-01 21:35:00,
2013-05-01 16:40:00,81.4,65.2,29.85,East,87,15.0,20.0,58,0.00,,---,0.00,VWS V14.00,2013-05-01 21:40:00,
2013-05-01 16:45:00,81.3,65.1,29.85,SE,137,17.0,17.0,58,0.00,,---,0.00,VWS V14.00,2013-05-01 21:45:00,
2013-05-01 16:50:00,81.1,63.9,29.85,East,96,13.0,15.0,56,0.00,,---,0.00,VWS V14.00,2013-05-01 21:50:00,
2013-05-01 16:55:00,80.5,63.4,29.85,SE,129,12.0,18.0,56,0.00,,---,0.00,VWS V14.00,2013-05-01 21:55:00,
2013-05-01 17:00:00,80.5,62.3,29.85,SE,127,7.0,16.0,54,0.00,,---,0.00,VWS V14.00,2013-05-01 22:00:00,
2013-05-01 17:05:00,80.3,63.7,29.86,ESE,117,7.0,15.0,57,0.00,,---,0.00,VWS V14.00,2013-05-01 22:05:00,
2013-05-01 17:10:00,80.5,63.9,29.86,ESE,103,10.0,17.0,57,0.00,,---,0.00,VWS V14.00,2013-05-01 22:10:00,
2013-05-01 17:15:00,81.1,63.4,29.86,ESE,115,13.0,20.0,55,0.00,,---,0.00,VWS V14.00,2013-05-01 22:15:00,
2013-05-01 17:20:00,81.0,63.3,29.86,ESE,111,12.0,15.0,55,0.00,,---,0.00,VWS V14.00,2013-05-01 22:20:00,
2013-05-01 17:25:00,81.1,63.9,29.86,East,92,10.0,13.0,56,0.00,,---,0.00,VWS V14.00,2013-05-01 22:25:00,
2013-05-01 17:30:00,81.1,64.4,29.86,ESE,121,13.0,17.0,57,0.00,,---,0.00,VWS V14.00,2013-05-01 22:30:00,
2013-05-01 17:35:00,81.2,63.5,29.86,East,100,10.0,15.0,55,0.00,,---,0.00,VWS V14.00,2013-05-01 22:35:00,
2013-05-01 17:36:00,81.2,63.0,29.86,ESE,111,6.0,15.0,54,0.00,,---,0.00,VWS V14.00,2013-05-01 22:36:00,
2013-05-01 17:40:00,81.2,63.5,29.86,ESE,105,10.0,14.0,55,0.00,,---,0.00,VWS V14.00,2013-05-01 22:40:00,
2013-05-01 17:41:00,81.2,63.5,29.86,ESE,109,11.0,14.0,55,0.00,,---,0.00,VWS V14.00,2013-05-01 22:41:00,
2013-05-01 17:45:00,81.2,63.5,29.86,East,101,13.0,21.0,55,0.00,,---,0.00,VWS V14.00,2013-05-01 22:45:00,
2013-05-01 17:46:00,81.3,62.5,29.86,ESE,116,15.0,21.0,53,0.00,,---,0.00,VWS V14.00,2013-05-01 22:46:00,
2013-05-01 17:50:00,81.1,62.9,29.87,SE,128,10.0,19.0,54,0.00,,---,0.00,VWS V14.00,2013-05-01 22:50:00,
2013-05-01 17:51:00,81.1,62.4,29.87,ESE,114,12.0,19.0,53,0.00,,---,0.00,VWS V14.00,2013-05-01 22:51:00,
2013-05-01 17:55:00,81.1,62.9,29.86,ESE,111,6.0,13.0,54,0.00,,---,0.00,VWS V14.00,2013-05-01 22:55:00,
2013-05-01 18:00:00,81.2,63.0,29.87,East,84,10.0,14.0,54,0.00,,---,0.00,VWS V14.00,2013-05-01 23:00:00,
2013-05-01 18:05:00,81.1,62.4,29.87,East,94,9.0,13.0,53,0.00,,---,0.00,VWS V14.00,2013-05-01 23:05:00,
2013-05-01 18:10:00,80.3,61.6,29.88,ESE,107,9.0,14.0,53,0.00,,---,0.00,VWS V14.00,2013-05-01 23:10:00,
2013-05-01 18:15:00,79.5,60.9,29.87,ESE,105,10.0,15.0,53,0.00,,---,0.00,VWS V14.00,2013-05-01 23:15:00,
2013-05-01 18:16:00,79.7,61.1,29.88,ESE,111,8.0,15.0,53,0.00,,---,0.00,VWS V14.00,2013-05-01 23:16:00,
2013-05-01 18:20:00,79.1,61.0,29.87,ESE,110,5.0,12.0,54,0.00,,---,0.00,VWS V14.00,2013-05-01 23:20:00,
2013-05-01 18:21:00,79.2,60.6,29.87,ESE,111,9.0,12.0,53,0.00,,---,0.00,VWS V14.00,2013-05-01 23:21:00,
2013-05-01 18:25:00,78.7,60.7,29.88,ESE,113,7.0,10.0,54,0.00,,---,0.00,VWS V14.00,2013-05-01 23:25:00,
2013-05-01 18:30:00,78.5,60.5,29.88,ESE,119,9.0,12.0,54,0.00,,---,0.00,VWS V14.00,2013-05-01 23:30:00,
2013-05-01 18:35:00,78.2,60.2,29.88,ESE,121,7.0,17.0,54,0.00,,---,0.00,VWS V14.00,2013-05-01 23:35:00,
2013-05-01 18:40:00,78.0,60.0,29.88,ESE,107,11.0,13.0,54,0.00,,---,0.00,VWS V14.00,2013-05-01 23:40:00,
2013-05-01 18:45:00,77.9,60.5,29.88,ESE,111,5.0,12.0,55,0.00,,---,0.00,VWS V14.00,2013-05-01 23:45:00,
2013-05-01 18:50:00,77.6,60.2,29.88,ESE,113,11.0,14.0,55,0.00,,---,0.00,VWS V14.00,2013-05-01 23:50:00,
2013-05-01 18:55:00,77.5,60.6,29.88,ESE,111,9.0,11.0,56,0.00,,---,0.00,VWS V14.00,2013-05-01 23:55:00,
2013-05-01 19:00:00,77.3,60.4,29.88,ESE,110,5.0,10.0,56,0.00,,---,0.00,VWS V14.00,2013-05-02 00:00:00,
2013-05-01 19:05:00,77.0,60.6,29.88,ESE,111,6.0,8.0,57,0.00,,---,0.00,VWS V14.00,2013-05-02 00:05:00,
2013-05-01 19:10:00,76.7,60.3,29.88,ESE,115,6.0,9.0,57,0.00,,---,0.00,VWS V14.00,2013-05-02 00:10:00,
2013-05-01 19:15:00,76.4,60.5,29.88,ESE,107,9.0,11.0,58,0.00,,---,0.00,VWS V14.00,2013-05-02 00:15:00,
2013-05-01 19:20:00,76.3,60.9,29.89,ESE,109,6.0,9.0,59,0.00,,---,0.00,VWS V14.00,2013-05-02 00:20:00,
2013-05-01 19:25:00,76.1,60.8,29.89,ESE,107,7.0,11.0,59,0.00,,---,0.00,VWS V14.00,2013-05-02 00:25:00,
2013-05-01 19:30:00,76.0,60.7,29.89,ESE,112,11.0,15.0,59,0.00,,---,0.00,VWS V14.00,2013-05-02 00:30:00,
2013-05-01 19:35:00,76.0,60.7,29.89,ESE,118,12.0,16.0,59,0.00,,---,0.00,VWS V14.00,2013-05-02 00:35:00,
2013-05-01 19:40:00,76.0,61.1,29.89,ESE,115,10.0,14.0,60,0.00,,---,0.00,VWS V14.00,2013-05-02 00:40:00,
2013-05-01 19:45:00,75.8,60.9,29.89,ESE,109,6.0,13.0,60,0.00,,---,0.00,VWS V14.00,2013-05-02 00:45:00,
2013-05-01 19:50:00,75.6,60.8,29.89,East,97,9.0,15.0,60,0.00,,---,0.00,VWS V14.00,2013-05-02 00:50:00,
2013-05-01 19:55:00,75.3,60.9,29.89,East,92,9.0,15.0,61,0.00,,---,0.00,VWS V14.00,2013-05-02 00:55:00,
2013-05-01 20:00:00,75.0,60.7,29.89,ESE,103,13.0,13.0,61,0.00,,---,0.00,VWS V14.00,2013-05-02 01:00:00,
2013-05-01 20:05:00,74.8,60.9,29.90,ESE,106,12.0,13.0,62,0.00,,---,0.00,VWS V14.00,2013-05-02 01:05:00,
2013-05-01 20:10:00,74.6,60.7,29.91,East,100,11.0,14.0,62,0.00,,---,0.00,VWS V14.00,2013-05-02 01:10:00,
2013-05-01 20:15:00,74.5,60.2,29.91,ESE,105,15.0,16.0,61,0.00,,---,0.00,VWS V14.00,2013-05-02 01:15:00,
2013-05-01 20:20:00,74.3,60.5,29.92,ESE,102,13.0,14.0,62,0.00,,---,0.00,VWS V14.00,2013-05-02 01:20:00,
2013-05-01 20:25:00,74.0,60.2,29.92,East,96,10.0,12.0,62,0.00,,---,0.00,VWS V14.00,2013-05-02 01:25:00,
2013-05-01 20:30:00,73.9,60.5,29.92,ESE,103,12.0,12.0,63,0.00,,---,0.00,VWS V14.00,2013-05-02 01:30:00,
2013-05-01 20:35:00,73.7,60.3,29.92,East,101,11.0,14.0,63,0.00,,---,0.00,VWS V14.00,2013-05-02 01:35:00,
2013-05-01 20:40:00,73.4,60.0,29.92,East,95,10.0,15.0,63,0.00,,---,0.00,VWS V14.00,2013-05-02 01:40:00,
2013-05-01 20:45:00,73.2,60.7,29.92,ESE,106,11.0,14.0,65,0.00,,---,0.00,VWS V14.00,2013-05-02 01:45:00,
2013-05-01 20:50:00,72.9,60.5,29.92,ESE,105,10.0,16.0,65,0.00,,---,0.00,VWS V14.00,2013-05-02 01:50:00,
2013-05-01 20:55:00,72.7,60.7,29.93,East,100,10.0,13.0,66,0.00,,---,0.00,VWS V14.00,2013-05-02 01:55:00,
2013-05-01 21:00:00,72.5,60.9,29.94,East,98,8.0,14.0,67,0.00,,---,0.00,VWS V14.00,2013-05-02 02:00:00,
2013-05-01 21:05:00,72.4,60.8,29.94,East,101,6.0,12.0,67,0.00,,---,0.00,VWS V14.00,2013-05-02 02:05:00,
2013-05-01 21:10:00,72.3,61.2,29.95,East,101,7.0,13.0,68,0.00,,---,0.00,VWS V14.00,2013-05-02 02:10:00,
2013-05-01 21:15:00,72.2,61.5,29.95,ESE,119,7.0,12.0,69,0.00,,---,0.00,VWS V14.00,2013-05-02 02:15:00,
2013-05-01 21:20:00,72.0,61.3,29.96,ESE,112,11.0,12.0,69,0.00,,---,0.00,VWS V14.00,2013-05-02 02:20:00,
2013-05-01 21:25:00,71.8,61.5,29.96,ESE,103,9.0,13.0,70,0.00,,---,0.00,VWS V14.00,2013-05-02 02:25:00,
2013-05-01 21:30:00,71.7,61.4,29.97,ESE,105,9.0,13.0,70,0.00,,---,0.00,VWS V14.00,2013-05-02 02:30:00,
2013-05-01 21:35:00,71.5,61.6,29.97,East,101,9.0,11.0,71,0.00,,---,0.00,VWS V14.00,2013-05-02 02:35:00,
2013-05-01 21:40:00,71.3,61.4,29.97,ESE,105,5.0,10.0,71,0.00,,---,0.00,VWS V14.00,2013-05-02 02:40:00,
2013-05-01 21:45:00,71.1,61.2,29.97,East,100,9.0,10.0,71,0.00,,---,0.00,VWS V14.00,2013-05-02 02:45:00,
2013-05-01 21:50:00,70.9,61.4,29.97,ESE,103,5.0,9.0,72,0.00,,---,0.00,VWS V14.00,2013-05-02 02:50:00,
2013-05-01 21:55:00,70.7,61.2,29.97,ESE,106,8.0,9.0,72,0.00,,---,0.00,VWS V14.00,2013-05-02 02:55:00,
2013-05-01 22:00:00,70.5,61.4,29.97,ESE,111,6.0,12.0,73,0.00,,---,0.00,VWS V14.00,2013-05-02 03:00:00,
2013-05-01 22:05:00,70.3,60.9,29.97,ESE,109,6.0,11.0,72,0.00,,---,0.00,VWS V14.00,2013-05-02 03:05:00,
2013-05-01 22:10:00,70.0,61.0,29.97,ESE,109,5.0,10.0,73,0.00,,---,0.00,VWS V14.00,2013-05-02 03:10:00,
2013-05-01 22:15:00,69.9,60.9,29.97,ESE,112,7.0,11.0,73,0.00,,---,0.00,VWS V14.00,2013-05-02 03:15:00,
2013-05-01 22:20:00,69.8,60.8,29.97,ESE,112,5.0,9.0,73,0.00,,---,0.00,VWS V14.00,2013-05-02 03:20:00,
2013-05-01 22:25:00,69.5,60.5,29.97,ESE,112,5.0,7.0,73,0.00,,---,0.00,VWS V14.00,2013-05-02 03:25:00,
2013-05-01 22:30:00,69.3,60.7,29.97,ESE,112,4.0,6.0,74,0.00,,---,0.00,VWS V14.00,2013-05-02 03:30:00,
2013-05-01 22:35:00,69.0,60.4,29.97,ESE,112,5.0,9.0,74,0.00,,---,0.00,VWS V14.00,2013-05-02 03:35:00,
2013-05-01 22:40:00,68.6,60.4,29.96,ESE,112,6.0,10.0,75,0.00,,---,0.00,VWS V14.00,2013-05-02 03:40:00,
2013-05-01 22:45:00,68.3,60.1,29.96,ESE,112,5.0,8.0,75,0.00,,---,0.00,VWS V14.00,2013-05-02 03:45:00,
2013-05-01 22:50:00,68.0,59.8,29.96,ESE,112,4.0,7.0,75,0.00,,---,0.00,VWS V14.00,2013-05-02 03:50:00,
2013-05-01 22:55:00,67.8,60.0,29.97,ESE,112,4.0,7.0,76,0.00,,---,0.00,VWS V14.00,2013-05-02 03:55:00,
2013-05-01 23:00:00,67.6,59.8,29.97,ESE,112,4.0,6.0,76,0.00,,---,0.00,VWS V14.00,2013-05-02 04:00:00,
2013-05-01 23:05:00,67.4,59.6,29.97,ESE,112,4.0,6.0,76,0.00,,---,0.00,VWS V14.00,2013-05-02 04:05:00,
2013-05-01 23:10:00,67.1,59.7,29.97,ESE,112,4.0,6.0,77,0.00,,---,0.00,VWS V14.00,2013-05-02 04:10:00,
2013-05-01 23:15:00,66.9,59.5,29.97,ESE,112,4.0,6.0,77,0.00,,---,0.00,VWS V14.00,2013-05-02 04:15:00,
2013-05-01 23:20:00,66.6,59.5,29.97,ESE,112,3.0,5.0,78,0.00,,---,0.00,VWS V14.00,2013-05-02 04:20:00,
2013-05-01 23:25:00,66.3,59.2,29.97,ESE,112,2.0,4.0,78,0.00,,---,0.00,VWS V14.00,2013-05-02 04:25:00,
2013-05-01 23:30:00,66.1,59.0,29.97,ESE,112,3.0,4.0,78,0.00,,---,0.00,VWS V14.00,2013-05-02 04:30:00,
2013-05-01 23:35:00,65.9,58.9,29.97,ESE,112,1.0,4.0,78,0.00,,---,0.00,VWS V14.00,2013-05-02 04:35:00,
2013-05-01 23:40:00,65.7,58.7,29.98,ESE,112,3.0,10.0,78,0.00,,---,0.00,VWS V14.00,2013-05-02 04:40:00,
2013-05-01 23:45:00,65.1,58.8,29.98,West,270,7.0,10.0,80,0.00,,---,0.00,VWS V14.00,2013-05-02 04:45:00,
2013-05-01 23:50:00,64.6,59.0,29.98,West,270,5.0,11.0,82,0.00,,---,0.00,VWS V14.00,2013-05-02 04:50:00,
2013-05-01 23:55:00,64.6,59.0,29.99,West,270,7.0,15.0,82,0.00,,---,0.00,VWS V14.00,2013-05-02 04:55:00,